Time,TemperatureF,DewpointF,PressureIn,WindDirection,WindDirectionDegrees,WindSpeedMPH,WindSpeedGustMPH,Humidity,HourlyPrecipIn,Conditions,Clouds,dailyrainin,SoftwareType,DateUTC
2013-09-03 00:14:00,55.0,51.0,29.95,NNW,335,2.0,-999.0,86,-99.99,,,-99.99,,2013-09-03 04:14:00,
2013-09-03 00:25:00,54.0,50.0,29.94,NNW,333,1.0,-999.0,86,-99.99,,,-99.99,,2013-09-03 04:25:00,
2013-09-03 00:44:00,54.0,50.0,29.94,NNW,338,2.0,-999.0,87,-99.99,,,-99.99,,2013-09-03 04:44:00,
2013-09-03 00:53:00,54.0,51.0,29.94,NNW,329,2.0,-999.0,88,-99.99,,,-99.99,,2013-09-03 04:53:00,
2013-09-03 01:12:00,54.0,50.0,29.95,WNW,296,2.0,-999.0,87,-99.99,,,-99.99,,2013-09-03 05:12:00,
2013-09-03 01:23:00,54.0,51.0,29.95,NW,315,1.0,-999.0,88,-99.99,,,-99.99,,2013-09-03 05:23:00,
2013-09-03 01:43:00,55.0,52.0,29.95,NW,304,2.0,-999.0,88,-99.99,,,-99.99,,2013-09-03 05:43:00,
2013-09-03 01:52:00,55.0,51.0,29.96,NNW,335,4.0,-999.0,87,-99.99,,,-99.99,,2013-09-03 05:52:00,
2013-09-03 02:12:00,54.0,50.0,29.96,NW,310,5.0,-999.0,87,-99.99,,,-99.99,,2013-09-03 06:12:00,
2013-09-03 02:22:00,54.0,51.0,29.96,NNW,339,2.0,-999.0,88,-99.99,,,-99.99,,2013-09-03 06:22:00,
2013-09-03 02:43:00,53.0,50.0,29.96,North,355,2.0,-999.0,89,-99.99,,,-99.99,,2013-09-03 06:43:00,
2013-09-03 02:52:00,52.0,49.0,29.96,North,355,1.0,-999.0,91,-99.99,,,-99.99,,2013-09-03 06:52:00,
2013-09-03 03:12:00,52.0,50.0,29.96,North,355,0.0,-999.0,92,-99.99,,,-99.99,,2013-09-03 07:12:00,
2013-09-03 03:22:00,52.0,50.0,29.96,North,355,1.0,-999.0,92,-99.99,,,-99.99,,2013-09-03 07:22:00,
2013-09-03 03:42:00,52.0,50.0,29.96,North,355,1.0,-999.0,92,-99.99,,,-99.99,,2013-09-03 07:42:00,
2013-09-03 03:52:00,52.0,50.0,29.96,North,355,0.0,-999.0,93,-99.99,,,-99.99,,2013-09-03 07:52:00,
2013-09-03 04:11:00,54.0,52.0,29.96,NW,309,1.0,-999.0,94,-99.99,,,-99.99,,2013-09-03 08:11:00,
2013-09-03 04:22:00,56.0,54.0,29.96,NNW,336,4.0,-999.0,92,-99.99,,,-99.99,,2013-09-03 08:22:00,
2013-09-03 04:52:00,56.0,53.0,29.96,NNW,346,3.0,-999.0,89,-99.99,,,-99.99,,2013-09-03 08:52:00,
2013-09-03 05:12:00,56.0,53.0,29.97,NNW,346,3.0,-999.0,90,-99.99,,,-99.99,,2013-09-03 09:12:00,
2013-09-03 05:22:00,56.0,53.0,29.96,North,355,4.0,-999.0,89,-99.99,,,-99.99,,2013-09-03 09:22:00,
2013-09-03 05:43:00,55.0,52.0,29.97,North,355,4.0,-999.0,90,-99.99,,,-99.99,,2013-09-03 09:43:00,
2013-09-03 05:53:00,55.0,52.0,29.97,North,349,3.0,-999.0,89,-99.99,,,-99.99,,2013-09-03 09:53:00,
2013-09-03 06:13:00,55.0,52.0,29.97,North,360,3.0,-999.0,88,-99.99,,,-99.99,,2013-09-03 10:13:00,
2013-09-03 06:23:00,54.0,51.0,29.97,North,360,1.0,-999.0,88,-99.99,,,-99.99,,2013-09-03 10:23:00,
2013-09-03 06:42:00,53.0,50.0,29.97,North,360,1.0,-999.0,88,-99.99,,,-99.99,,2013-09-03 10:42:00,
2013-09-03 06:53:00,52.0,49.0,29.98,North,360,0.0,-999.0,89,-99.99,,,-99.99,,2013-09-03 10:53:00,
2013-09-03 07:12:00,51.0,48.0,29.98,North,360,0.0,-999.0,90,-99.99,,,-99.99,,2013-09-03 11:12:00,
2013-09-03 07:43:00,50.0,48.0,30.00,North,360,0.0,-999.0,93,-99.99,,,-99.99,,2013-09-03 11:43:00,
2013-09-03 07:52:00,49.0,47.0,30.00,North,360,0.0,-999.0,93,-99.99,,,-99.99,,2013-09-03 11:52:00,
2013-09-03 08:12:00,49.0,47.0,30.01,North,360,0.0,-999.0,94,-99.99,,,-99.99,,2013-09-03 12:12:00,
2013-09-03 08:22:00,51.0,50.0,30.01,North,360,0.0,-999.0,95,-99.99,,,-99.99,,2013-09-03 12:22:00,
2013-09-03 08:42:00,52.0,50.0,30.01,North,360,0.0,-999.0,94,-99.99,,,-99.99,,2013-09-03 12:42:00,
2013-09-03 08:52:00,54.0,52.0,30.01,North,360,1.0,-999.0,92,-99.99,,,-99.99,,2013-09-03 12:52:00,
2013-09-03 09:11:00,56.0,52.0,30.01,North,360,1.0,-999.0,86,-99.99,,,-99.99,,2013-09-03 13:11:00,
2013-09-03 09:22:00,58.0,52.0,30.01,NNW,346,3.0,-999.0,80,-99.99,,,-99.99,,2013-09-03 13:22:00,
2013-09-03 09:42:00,59.0,52.0,30.01,NNW,340,4.0,-999.0,77,-99.99,,,-99.99,,2013-09-03 13:42:00,
2013-09-03 09:52:00,59.0,51.0,30.01,NNW,331,5.0,-999.0,76,-99.99,,,-99.99,,2013-09-03 13:52:00,
2013-09-03 10:11:00,60.0,52.0,30.01,NW,306,5.0,-999.0,74,-99.99,,,-99.99,,2013-09-03 14:11:00,
2013-09-03 10:21:00,62.0,53.0,30.01,NW,312,6.0,-999.0,73,-99.99,,,-99.99,,2013-09-03 14:21:00,
2013-09-03 10:42:00,63.0,53.0,30.01,NNW,328,5.0,-999.0,70,-99.99,,,-99.99,,2013-09-03 14:42:00,
2013-09-03 10:52:00,63.0,53.0,30.01,NNW,328,5.0,-999.0,70,-99.99,,,-99.99,,2013-09-03 14:52:00,
2013-09-03 11:22:00,65.0,55.0,30.00,NW,309,7.0,-999.0,71,-99.99,,,-99.99,,2013-09-03 15:22:00,
2013-09-03 11:43:00,66.0,56.0,30.00,WNW,289,7.0,-999.0,69,-99.99,,,-99.99,,2013-09-03 15:43:00,
2013-09-03 11:54:00,65.0,51.0,30.01,NW,306,9.0,-999.0,61,-99.99,,,-99.99,,2013-09-03 15:54:00,
2013-09-03 12:14:00,65.0,52.0,30.00,NW,323,10.0,-999.0,62,-99.99,,,-99.99,,2013-09-03 16:14:00,
2013-09-03 12:24:00,66.0,51.0,30.01,NW,311,7.0,-999.0,58,-99.99,,,-99.99,,2013-09-03 16:24:00,
2013-09-03 12:43:00,67.0,52.0,30.01,West,276,8.0,-999.0,59,-99.99,,,-99.99,,2013-09-03 16:43:00,
2013-09-03 12:54:00,66.0,49.0,30.01,WNW,289,8.0,-999.0,55,-99.99,,,-99.99,,2013-09-03 16:54:00,
2013-09-03 13:13:00,67.0,53.0,30.00,North,350,8.0,-999.0,60,-99.99,,,-99.99,,2013-09-03 17:13:00,
2013-09-03 13:23:00,67.0,50.0,30.00,West,261,8.0,-999.0,55,-99.99,,,-99.99,,2013-09-03 17:23:00,
2013-09-03 13:43:00,68.0,51.0,30.00,NNW,327,7.0,-999.0,55,-99.99,,,-99.99,,2013-09-03 17:43:00,
2013-09-03 13:52:00,67.0,50.0,30.00,WNW,299,8.0,-999.0,55,-99.99,,,-99.99,,2013-09-03 17:52:00,
2013-09-03 14:12:00,68.0,51.0,30.00,West,279,8.0,-999.0,55,-99.99,,,-99.99,,2013-09-03 18:12:00,
2013-09-03 14:22:00,68.0,52.0,30.00,NW,311,9.0,-999.0,57,-99.99,,,-99.99,,2013-09-03 18:22:00,
2013-09-03 14:43:00,68.0,53.0,30.00,NW,306,9.0,-999.0,58,-99.99,,,-99.99,,2013-09-03 18:43:00,
2013-09-03 14:52:00,69.0,55.0,30.00,West,281,8.0,-999.0,61,-99.99,,,-99.99,,2013-09-03 18:52:00,
2013-09-03 15:11:00,69.0,56.0,29.99,WNW,292,8.0,-999.0,63,-99.99,,,-99.99,,2013-09-03 19:11:00,
2013-09-03 15:22:00,69.0,55.0,29.99,WNW,298,10.0,-999.0,61,-99.99,,,-99.99,,2013-09-03 19:22:00,
2013-09-03 15:42:00,69.0,55.0,29.98,NW,305,11.0,-999.0,60,-99.99,,,-99.99,,2013-09-03 19:42:00,
2013-09-03 15:52:00,69.0,55.0,29.98,WNW,298,10.0,-999.0,62,-99.99,,,-99.99,,2013-09-03 19:52:00,
2013-09-03 16:11:00,69.0,57.0,29.98,WNW,295,10.0,-999.0,65,-99.99,,,-99.99,,2013-09-03 20:11:00,
2013-09-03 16:22:00,69.0,57.0,29.98,NW,313,9.0,-999.0,65,-99.99,,,-99.99,,2013-09-03 20:22:00,
2013-09-03 16:42:00,69.0,55.0,29.98,NW,311,10.0,-999.0,62,-99.99,,,-99.99,,2013-09-03 20:42:00,
2013-09-03 16:52:00,69.0,55.0,29.98,NW,311,10.0,-999.0,62,-99.99,,,-99.99,,2013-09-03 20:52:00,
2013-09-03 17:12:00,68.0,55.0,29.97,NNW,337,10.0,-999.0,64,-99.99,,,-99.99,,2013-09-03 21:12:00,
2013-09-03 17:22:00,68.0,56.0,29.97,NW,307,10.0,-999.0,65,-99.99,,,-99.99,,2013-09-03 21:22:00,
2013-09-03 17:44:00,68.0,56.0,29.96,NW,306,10.0,-999.0,65,-99.99,,,-99.99,,2013-09-03 21:44:00,
2013-09-03 17:54:00,68.0,55.0,29.96,NNW,336,8.0,-999.0,64,-99.99,,,-99.99,,2013-09-03 21:54:00,
2013-09-03 18:13:00,68.0,55.0,29.96,NW,304,8.0,-999.0,64,-99.99,,,-99.99,,2013-09-03 22:13:00,
2013-09-03 18:24:00,68.0,55.0,29.96,NNW,337,6.0,-999.0,64,-99.99,,,-99.99,,2013-09-03 22:24:00,
2013-09-03 18:52:00,67.0,54.0,29.96,NNW,336,8.0,-999.0,63,-99.99,,,-99.99,,2013-09-03 22:52:00,
2013-09-03 19:12:00,67.0,54.0,29.96,NW,305,5.0,-999.0,62,-99.99,,,-99.99,,2013-09-03 23:12:00,
2013-09-03 19:23:00,66.0,53.0,29.97,WNW,289,5.0,-999.0,62,-99.99,,,-99.99,,2013-09-03 23:23:00,
2013-09-03 19:42:00,65.0,51.0,29.97,West,271,4.0,-999.0,61,-99.99,,,-99.99,,2013-09-03 23:42:00,
2013-09-03 19:53:00,65.0,52.0,29.96,WSW,245,3.0,-999.0,62,-99.99,,,-99.99,,2013-09-03 23:53:00,
2013-09-03 20:12:00,64.0,52.0,29.96,WNW,291,1.0,-999.0,64,-99.99,,,-99.99,,2013-09-04 00:12:00,
2013-09-03 20:22:00,64.0,52.0,29.96,WNW,291,1.0,-999.0,64,-99.99,,,-99.99,,2013-09-04 00:22:00,
2013-09-03 20:42:00,59.0,52.0,29.96,WNW,291,1.0,-999.0,78,-99.99,,,-99.99,,2013-09-04 00:42:00,
2013-09-03 21:42:00,54.0,51.0,29.97,WNW,291,0.0,-999.0,89,-99.99,,,-99.99,,2013-09-04 01:42:00,
2013-09-03 21:52:00,54.0,51.0,29.97,WNW,291,0.0,-999.0,90,-99.99,,,-99.99,,2013-09-04 01:52:00,
2013-09-03 22:11:00,53.0,50.0,29.96,WNW,291,0.0,-999.0,91,-99.99,,,-99.99,,2013-09-04 02:11:00,
2013-09-03 22:43:00,52.0,50.0,29.96,WNW,291,0.0,-999.0,92,-99.99,,,-99.99,,2013-09-04 02:43:00,
2013-09-03 22:52:00,52.0,50.0,29.96,WNW,291,0.0,-999.0,93,-99.99,,,-99.99,,2013-09-04 02:52:00,
2013-09-03 23:12:00,51.0,49.0,29.96,WNW,291,0.0,-999.0,94,-99.99,,,-99.99,,2013-09-04 03:12:00,
2013-09-03 23:22:00,51.0,49.0,29.96,WNW,291,0.0,-999.0,94,-99.99,,,-99.99,,2013-09-04 03:22:00,